This is the latest recevied weather packets stored in our database for station/object N7WSS. If no packets are shown the sender has not sent any weather packets the latest 10 day(s).
| Time | Temp. | Humidity | Pressure | Rain* | Wind** | Luminosity | Snow |
|---|---|---|---|---|---|---|---|
| 1777840849 | 30° C | 26% | 1010.5 hPa | 0 mm | - | - | - |
| 1777840546 | 29.44° C | 27% | 1010.4 hPa | 0 mm | - | - | - |
| 1777840244 | 30.56° C | 26% | 1010.5 hPa | 0 mm | - | - | - |
| 1777839942 | 30° C | 27% | 1010.4 hPa | 0 mm | - | - | - |
| 1777839639 | 30° C | 27% | 1010.3 hPa | 0 mm | - | - | - |
| 1777839337 | 29.44° C | 27% | 1010.6 hPa | 0 mm | - | - | - |
| 1777839034 | 29.44° C | 27% | 1010.6 hPa | 0 mm | - | - | - |
| 1777838730 | 29.44° C | 27% | 1010.6 hPa | 0 mm | - | - | - |
| 1777838427 | 29.44° C | 27% | 1010.7 hPa | 0 mm | - | - | - |
| 1777838124 | 29.44° C | 28% | 1010.8 hPa | 0 mm | - | - | - |
| 1777837821 | 29.44° C | 28% | 1010.9 hPa | 0 mm | - | - | - |
| 1777837518 | 28.89° C | 28% | 1010.9 hPa | 0 mm | - | - | - |
| 1777837218 | 28.89° C | 29% | 1011.1 hPa | 0 mm | - | - | - |
| 1777836915 | 28.89° C | 28% | 1011.1 hPa | 0 mm | - | - | - |
| 1777836610 | 28.89° C | 29% | 1011.4 hPa | 0 mm | - | - | - |
| 1777836306 | 28.33° C | 29% | 1011.5 hPa | 0 mm | - | - | - |
| 1777836002 | 28.33° C | 29% | 1011.4 hPa | 0 mm | - | - | - |
| 1777835700 | 28.33° C | 30% | 1011.6 hPa | 0 mm | - | - | - |
| 1777835396 | 28.33° C | 29% | 1011.5 hPa | 0 mm | - | - | - |
| 1777835093 | 27.78° C | 30% | 1011.7 hPa | 0 mm | - | - | - |
| 1777834790 | 28.33° C | 30% | 1011.7 hPa | 0 mm | - | - | - |
| 1777834487 | 27.78° C | 30% | 1012 hPa | 0 mm | - | - | - |
| 1777834186 | 27.78° C | 30% | 1012 hPa | 0 mm | - | - | - |
| 1777833883 | 27.22° C | 32% | 1012 hPa | 0 mm | - | - | - |
| 1777833579 | 27.22° C | 32% | 1012.4 hPa | 0 mm | - | - | - |
* Rain latest hour (hover to see other rain measurements)
** Current wind speed in m/s (hover to see current wind gust speed)